JAL903 RJTT-ROAH

Flight info

Callsign JAL903
Flight time 2h 22m
Altitude 40000
Route LAXAS Y56 TOHME Y54 KOHWA Y12 AYANO Y128 LAXEL Y52 TONAR Y525 IHEYA
Aircraft A359/H-SDE2E3GHIJ3J4J5LM1ORWXY/LB1D1

Departure

Time 2026-05-04 13:18
Airport Tokyo Haneda International Airport (RJTT)

Arrival

Time 2026-05-04 15:40
Airport Naha International Airport (ROAH)
Time Latitude Longitude Altitude Speed Heading
2026-05-04 13:17 35.56088 139.87283 2995 ft 222 kts 105°
2026-05-04 13:18 35.55516 139.89150 3382 ft 243 kts 107°
2026-05-04 13:18 35.54967 139.91161 3920 ft 255 kts 105°
2026-05-04 13:18 35.54148 139.93206 4291 ft 280 kts 128°
2026-05-04 13:18 35.52575 139.94638 4849 ft 286 kts 165°
2026-05-04 13:19 35.50658 139.94858 5792 ft 274 kts 191°
2026-05-04 13:19 35.49407 139.94682 6470 ft 270 kts 195°
2026-05-04 13:19 35.47128 139.93580 7703 ft 263 kts 219°
2026-05-04 13:19 35.45676 139.92211 8607 ft 265 kts 223°
2026-05-04 13:20 35.44294 139.90754 9526 ft 268 kts 224°
2026-05-04 13:20 35.42882 139.89217 10313 ft 277 kts 225°
2026-05-04 13:20 35.41397 139.87573 10760 ft 297 kts 225°
2026-05-04 13:20 35.39825 139.85821 11184 ft 316 kts 226°
2026-05-04 13:21 35.38171 139.83975 11816 ft 325 kts 226°
2026-05-04 13:21 35.36491 139.82105 12675 ft 327 kts 226°
2026-05-04 13:21 35.34814 139.80237 13601 ft 326 kts 227°
2026-05-04 13:21 35.33131 139.78360 14333 ft 327 kts 227°
2026-05-04 13:22 35.31441 139.76473 15028 ft 330 kts 227°
2026-05-04 13:22 35.29740 139.74576 15746 ft 331 kts 227°
2026-05-04 13:22 35.28033 139.72673 16460 ft 334 kts 227°
2026-05-04 13:22 35.26309 139.70751 17200 ft 336 kts 227°
2026-05-04 13:23 35.24579 139.68825 17950 ft 338 kts 227°
2026-05-04 13:23 35.22836 139.66883 18597 ft 339 kts 227°
2026-05-04 13:23 35.21093 139.64945 19314 ft 339 kts 227°
2026-05-04 13:23 35.19349 139.63008 20022 ft 339 kts 227°
2026-05-04 13:24 35.17607 139.61074 20735 ft 338 kts 227°
2026-05-04 13:24 35.15859 139.59133 21416 ft 339 kts 227°
2026-05-04 13:24 35.14113 139.57194 22072 ft 340 kts 227°
2026-05-04 13:25 35.10602 139.53300 23376 ft 342 kts 227°
2026-05-04 13:25 35.08932 139.51245 23904 ft 340 kts 233°
2026-05-04 13:25 35.07620 139.48847 24425 ft 341 kts 243°
2026-05-04 13:25 35.06822 139.46106 24911 ft 346 kts 252°
2026-05-04 13:26 35.06298 139.43221 25418 ft 350 kts 254°
2026-05-04 13:26 35.05814 139.40299 25917 ft 353 kts 254°
2026-05-04 13:26 35.05330 139.37356 26462 ft 355 kts 254°
2026-05-04 13:26 35.05005 139.35392 26802 ft 357 kts 254°
2026-05-04 13:27 35.04343 139.31409 27497 ft 360 kts 254°
2026-05-04 13:27 35.04010 139.29414 27833 ft 362 kts 254°
2026-05-04 13:27 35.03506 139.26402 28322 ft 365 kts 253°
2026-05-04 13:27 35.02996 139.23358 28818 ft 367 kts 253°
2026-05-04 13:28 35.02485 139.20301 29311 ft 370 kts 253°
2026-05-04 13:28 35.01966 139.17208 29796 ft 372 kts 253°
2026-05-04 13:28 35.01446 139.14116 30175 ft 375 kts 253°
2026-05-04 13:28 35.00918 139.10979 30556 ft 377 kts 253°
2026-05-04 13:29 35.00389 139.07849 30991 ft 379 kts 253°
2026-05-04 13:29 34.99854 139.04694 31416 ft 380 kts 253°
2026-05-04 13:29 34.99315 139.01514 31747 ft 383 kts 253°
2026-05-04 13:29 34.98873 138.98289 32122 ft 388 kts 257°
2026-05-04 13:30 34.98624 138.94997 32468 ft 392 kts 258°
2026-05-04 13:30 34.98423 138.91677 32899 ft 392 kts 258°
2026-05-04 13:30 34.98248 138.88364 33426 ft 390 kts 258°
2026-05-04 13:30 34.98084 138.85065 33885 ft 389 kts 259°
2026-05-04 13:31 34.97922 138.81779 34271 ft 388 kts 259°
2026-05-04 13:31 34.97758 138.78510 34815 ft 383 kts 259°
2026-05-04 13:31 34.97594 138.75282 35265 ft 381 kts 259°
2026-05-04 13:31 34.97425 138.72065 35630 ft 379 kts 259°
2026-05-04 13:32 34.97254 138.68864 35968 ft 378 kts 259°
2026-05-04 13:32 34.97081 138.65665 36295 ft 378 kts 260°
2026-05-04 13:32 34.96907 138.62476 36612 ft 377 kts 260°
2026-05-04 13:32 34.96733 138.59294 36928 ft 376 kts 260°
2026-05-04 13:33 34.96561 138.56164 37265 ft 374 kts 260°
2026-05-04 13:33 34.96387 138.53003 37591 ft 373 kts 261°
2026-05-04 13:33 34.96213 138.49854 37964 ft 372 kts 261°
2026-05-04 13:33 34.96040 138.46724 38342 ft 369 kts 261°
2026-05-04 13:34 34.95867 138.43609 38633 ft 368 kts 261°
2026-05-04 13:34 34.95691 138.40493 38788 ft 369 kts 261°
2026-05-04 13:34 34.95513 138.37363 38916 ft 371 kts 261°
2026-05-04 13:34 34.95334 138.34222 39071 ft 372 kts 261°
2026-05-04 13:35 34.95155 138.31075 39196 ft 373 kts 261°
2026-05-04 13:35 34.94794 138.24747 39500 ft 375 kts 261°
2026-05-04 13:35 34.94611 138.21567 39605 ft 376 kts 261°
2026-05-04 13:36 34.94427 138.18383 39762 ft 377 kts 261°
2026-05-04 13:36 34.94056 138.12009 39868 ft 377 kts 261°
2026-05-04 13:37 34.93682 138.05625 39858 ft 377 kts 261°
2026-05-04 13:37 34.93302 137.99257 39862 ft 377 kts 261°
2026-05-04 13:38 34.92923 137.92859 39879 ft 380 kts 261°
2026-05-04 13:38 34.92538 137.86442 39889 ft 379 kts 261°
2026-05-04 13:39 34.92143 137.80033 39919 ft 379 kts 261°
2026-05-04 13:39 34.91750 137.73619 39915 ft 380 kts 261°
2026-05-04 13:40 34.91070 137.67309 39927 ft 375 kts 253°
2026-05-04 13:40 34.89518 137.61261 39920 ft 374 kts 249°
2026-05-04 13:41 34.87744 137.55306 39937 ft 374 kts 248°
2026-05-04 13:41 34.85935 137.49365 39930 ft 374 kts 248°
2026-05-04 13:42 34.83302 137.40419 39946 ft 374 kts 249°
2026-05-04 13:42 34.81607 137.34432 39975 ft 374 kts 249°
2026-05-04 13:43 34.79905 137.28451 39964 ft 374 kts 249°
2026-05-04 13:43 34.78191 137.22477 39965 ft 374 kts 249°
2026-05-04 13:44 34.76471 137.16512 39995 ft 374 kts 249°
2026-05-04 13:44 34.74748 137.10545 39997 ft 374 kts 249°
2026-05-04 13:45 34.73022 137.04578 39988 ft 374 kts 249°
2026-05-04 13:45 34.70951 136.98790 39985 ft 374 kts 241°
2026-05-04 13:46 34.67848 136.93706 39994 ft 378 kts 230°
2026-05-04 13:46 34.63830 136.89519 39987 ft 383 kts 224°
2026-05-04 13:47 34.59583 136.85609 40005 ft 383 kts 223°
2026-05-04 13:47 34.55315 136.81728 39999 ft 383 kts 224°
2026-05-04 13:48 34.51065 136.77832 40011 ft 383 kts 224°
2026-05-04 13:48 34.46852 136.73952 40016 ft 382 kts 224°
2026-05-04 13:49 34.42610 136.70061 40021 ft 382 kts 224°
2026-05-04 13:49 34.38371 136.66170 40033 ft 382 kts 224°
2026-05-04 13:50 34.34140 136.62272 40032 ft 382 kts 224°
2026-05-04 13:50 34.29908 136.58377 40035 ft 383 kts 224°
2026-05-04 13:51 34.25699 136.54455 40044 ft 382 kts 224°
2026-05-04 13:51 34.21512 136.50504 40043 ft 381 kts 224°
2026-05-04 13:52 34.15227 136.44602 40049 ft 381 kts 224°
2026-05-04 13:53 34.11023 136.40694 40052 ft 383 kts 223°
2026-05-04 13:53 34.06417 136.37327 40047 ft 389 kts 217°
2026-05-04 13:54 33.99209 136.32747 40049 ft 392 kts 216°
2026-05-04 13:55 33.91949 136.28205 40048 ft 392 kts 216°
2026-05-04 13:55 33.84704 136.23653 40048 ft 392 kts 216°
2026-05-04 13:56 33.79876 136.20620 40049 ft 392 kts 216°
2026-05-04 13:57 33.72609 136.16061 40043 ft 394 kts 216°
2026-05-04 13:58 33.62871 136.09968 40050 ft 395 kts 216°
2026-05-04 13:58 33.55556 136.05404 40053 ft 395 kts 216°
2026-05-04 13:59 33.50676 136.02362 40043 ft 395 kts 216°
2026-05-04 14:00 33.43342 135.97796 40057 ft 396 kts 216°
2026-05-04 14:00 33.36007 135.93241 40061 ft 396 kts 216°
2026-05-04 14:01 33.31111 135.90206 40061 ft 396 kts 216°
2026-05-04 14:02 33.23768 135.85661 40013 ft 396 kts 216°
2026-05-04 14:02 33.18868 135.82632 40077 ft 397 kts 216°
2026-05-04 14:03 33.13974 135.79611 40078 ft 397 kts 216°
2026-05-04 14:03 33.09058 135.76581 40076 ft 397 kts 216°
2026-05-04 14:04 33.01708 135.72056 40083 ft 397 kts 216°
2026-05-04 14:04 32.96798 135.69038 40038 ft 397 kts 216°
2026-05-04 14:05 32.89409 135.64504 40076 ft 398 kts 216°
2026-05-04 14:06 32.84491 135.61491 40079 ft 398 kts 216°
2026-05-04 14:06 32.79561 135.58475 40078 ft 398 kts 216°
2026-05-04 14:07 32.74643 135.55470 40083 ft 398 kts 216°
2026-05-04 14:07 32.69709 135.52458 40075 ft 398 kts 216°
2026-05-04 14:08 32.64773 135.49449 40078 ft 398 kts 216°
2026-05-04 14:08 32.59839 135.46446 40083 ft 399 kts 216°
2026-05-04 14:09 32.52483 135.41974 40080 ft 399 kts 216°
2026-05-04 14:10 32.45068 135.37474 40093 ft 399 kts 216°
2026-05-04 14:10 32.40133 135.34484 40085 ft 399 kts 216°
2026-05-04 14:11 32.35192 135.31494 40086 ft 399 kts 216°
2026-05-04 14:11 32.27784 135.27020 40085 ft 399 kts 216°
2026-05-04 14:12 32.22839 135.24040 40085 ft 399 kts 216°
2026-05-04 14:13 32.15423 135.19575 40083 ft 399 kts 216°
2026-05-04 14:13 32.10681 135.16318 40086 ft 389 kts 224°
2026-05-04 14:14 32.07376 135.12812 40090 ft 381 kts 233°
2026-05-04 14:14 32.02453 135.05515 40092 ft 379 kts 236°
2026-05-04 14:15 31.96070 134.95637 40089 ft 379 kts 236°
2026-05-04 14:16 31.91241 134.88257 40088 ft 379 kts 236°
2026-05-04 14:17 31.86399 134.80884 40091 ft 379 kts 236°
2026-05-04 14:18 31.81560 134.73526 40094 ft 379 kts 236°
2026-05-04 14:19 31.75092 134.63711 40097 ft 379 kts 236°
2026-05-04 14:19 31.71859 134.58815 40100 ft 379 kts 236°
2026-05-04 14:20 31.68623 134.53920 40093 ft 381 kts 236°
2026-05-04 14:20 31.65341 134.48958 40101 ft 388 kts 236°
2026-05-04 14:21 31.60319 134.41383 40125 ft 394 kts 236°
2026-05-04 14:21 31.56947 134.36310 40081 ft 394 kts 236°
2026-05-04 14:22 31.53573 134.31239 40106 ft 394 kts 236°
2026-05-04 14:22 31.50196 134.26170 40104 ft 395 kts 236°
2026-05-04 14:23 31.45127 134.18570 40086 ft 394 kts 236°
2026-05-04 14:24 31.41749 134.13514 40106 ft 394 kts 236°
2026-05-04 14:24 31.38366 134.08458 40108 ft 394 kts 236°
2026-05-04 14:25 31.34990 134.03416 40109 ft 394 kts 236°
2026-05-04 14:25 31.29905 133.95839 40114 ft 394 kts 235°
2026-05-04 14:26 31.26514 133.90792 40111 ft 394 kts 235°
2026-05-04 14:26 31.23124 133.85755 40108 ft 394 kts 235°
2026-05-04 14:27 31.19730 133.80718 40106 ft 395 kts 235°
2026-05-04 14:27 31.16327 133.75674 40111 ft 396 kts 235°
2026-05-04 14:28 31.12942 133.70663 40111 ft 396 kts 235°
2026-05-04 14:28 31.09528 133.65616 40114 ft 396 kts 235°
2026-05-04 14:29 31.02685 133.55522 40108 ft 397 kts 235°
2026-05-04 14:30 30.99260 133.50477 40112 ft 397 kts 235°
2026-05-04 14:31 30.94114 133.42900 40141 ft 398 kts 235°
2026-05-04 14:32 30.87217 133.32773 40118 ft 399 kts 235°
2026-05-04 14:32 30.83766 133.27717 40118 ft 399 kts 235°
2026-05-04 14:33 30.80309 133.22658 40142 ft 401 kts 235°
2026-05-04 14:33 30.76829 133.17572 40121 ft 401 kts 235°
2026-05-04 14:34 30.73356 133.12504 40119 ft 401 kts 235°
2026-05-04 14:34 30.69880 133.07437 40106 ft 401 kts 235°
2026-05-04 14:35 30.66396 133.02365 40129 ft 402 kts 235°
2026-05-04 14:35 30.63148 132.97641 40121 ft 401 kts 235°
2026-05-04 14:36 30.59663 132.92581 40122 ft 401 kts 235°
2026-05-04 14:36 30.56178 132.87527 40121 ft 401 kts 235°
2026-05-04 14:37 30.52691 132.82476 40121 ft 401 kts 235°
2026-05-04 14:37 30.49201 132.77427 40122 ft 401 kts 235°
2026-05-04 14:38 30.45709 132.72383 40125 ft 401 kts 235°
2026-05-04 14:38 30.42211 132.67334 40123 ft 403 kts 235°
2026-05-04 14:39 30.38691 132.62260 40126 ft 404 kts 235°
2026-05-04 14:39 30.35167 132.57188 40126 ft 404 kts 235°
2026-05-04 14:40 30.29882 132.49595 40118 ft 404 kts 235°
2026-05-04 14:40 30.26350 132.44526 40127 ft 405 kts 235°
2026-05-04 14:41 30.22829 132.39481 40146 ft 406 kts 235°
2026-05-04 14:42 30.15725 132.29322 40127 ft 406 kts 235°
2026-05-04 14:42 30.12186 132.24269 40150 ft 407 kts 234°
2026-05-04 14:43 30.08595 132.19150 40153 ft 408 kts 234°
2026-05-04 14:43 30.05050 132.14103 40137 ft 407 kts 234°
2026-05-04 14:44 30.01477 132.09023 40144 ft 408 kts 234°
2026-05-04 14:44 29.97890 132.03927 40134 ft 409 kts 234°
2026-05-04 14:45 29.94299 131.98835 40146 ft 409 kts 234°
2026-05-04 14:45 29.90717 131.93762 40112 ft 408 kts 234°
2026-05-04 14:46 29.87122 131.88675 40141 ft 409 kts 234°
2026-05-04 14:46 29.83526 131.83592 40141 ft 410 kts 234°
2026-05-04 14:47 29.79912 131.78520 40148 ft 410 kts 234°
2026-05-04 14:47 29.76219 131.73530 40131 ft 409 kts 233°
2026-05-04 14:48 29.72494 131.68535 40142 ft 411 kts 233°
2026-05-04 14:48 29.68790 131.63548 40143 ft 411 kts 233°
2026-05-04 14:49 29.65069 131.58531 40148 ft 411 kts 233°
2026-05-04 14:49 29.61362 131.53534 40143 ft 411 kts 233°
2026-05-04 14:50 29.57633 131.48514 40146 ft 412 kts 233°
2026-05-04 14:50 29.53910 131.43509 40145 ft 412 kts 233°
2026-05-04 14:51 29.50186 131.38508 40148 ft 412 kts 233°
2026-05-04 14:51 29.46453 131.33503 40152 ft 413 kts 233°
2026-05-04 14:52 29.42711 131.28491 40149 ft 414 kts 233°
2026-05-04 14:52 29.38987 131.23510 40151 ft 414 kts 233°
2026-05-04 14:53 29.35241 131.18506 40151 ft 414 kts 233°
2026-05-04 14:53 29.31493 131.13506 40150 ft 414 kts 233°
2026-05-04 14:54 29.27739 131.08502 40151 ft 414 kts 233°
2026-05-04 14:54 29.23986 131.03506 40151 ft 413 kts 233°
2026-05-04 14:55 29.20232 130.98516 40151 ft 413 kts 233°
2026-05-04 14:55 29.16481 130.93535 40151 ft 413 kts 233°
2026-05-04 14:56 29.12720 130.88547 40153 ft 413 kts 233°
2026-05-04 14:56 29.08966 130.83574 40150 ft 413 kts 233°
2026-05-04 14:57 29.05211 130.78607 40152 ft 413 kts 233°
2026-05-04 14:57 29.01451 130.73638 40148 ft 414 kts 233°
2026-05-04 14:58 28.97675 130.68654 40149 ft 415 kts 233°
2026-05-04 14:58 28.94531 130.64509 40148 ft 415 kts 233°
2026-05-04 14:59 28.90749 130.59530 40148 ft 415 kts 233°
2026-05-04 15:00 28.85064 130.52054 40149 ft 417 kts 233°
2026-05-04 15:00 28.81262 130.47062 40161 ft 417 kts 233°
2026-05-04 15:01 28.75557 130.39585 40148 ft 416 kts 233°
2026-05-04 15:01 28.71752 130.34605 40136 ft 417 kts 233°
2026-05-04 15:02 28.67951 130.29635 40143 ft 418 kts 233°
2026-05-04 15:02 28.64105 130.24614 40156 ft 419 kts 233°
2026-05-04 15:03 28.60279 130.19625 40143 ft 418 kts 233°
2026-05-04 15:03 28.56460 130.14651 40138 ft 418 kts 233°
2026-05-04 15:04 28.52630 130.09668 40138 ft 419 kts 233°
2026-05-04 15:04 28.48794 130.04683 40134 ft 419 kts 233°
2026-05-04 15:05 28.44958 129.99706 40135 ft 418 kts 233°
2026-05-04 15:05 28.41123 129.94735 40136 ft 419 kts 233°
2026-05-04 15:06 28.37281 129.89758 40134 ft 420 kts 233°
2026-05-04 15:07 28.31505 129.82291 40138 ft 420 kts 233°
2026-05-04 15:07 28.27649 129.77314 40105 ft 419 kts 233°
2026-05-04 15:08 28.23789 129.72338 40141 ft 420 kts 233°
2026-05-04 15:08 28.19923 129.67358 40144 ft 421 kts 233°
2026-05-04 15:09 28.16055 129.62384 40151 ft 421 kts 233°
2026-05-04 15:09 28.12183 129.57409 40174 ft 421 kts 232°
2026-05-04 15:10 28.06362 129.49941 40157 ft 422 kts 233°
2026-05-04 15:11 28.00549 129.42496 40161 ft 422 kts 233°
2026-05-04 15:11 27.96661 129.37525 40165 ft 422 kts 233°
2026-05-04 15:12 27.92757 129.32540 40168 ft 424 kts 233°
2026-05-04 15:12 27.88852 129.27557 40162 ft 424 kts 233°
2026-05-04 15:13 27.84937 129.22569 40164 ft 424 kts 233°
2026-05-04 15:13 27.81020 129.17584 40164 ft 424 kts 232°
2026-05-04 15:14 27.77450 129.13046 40154 ft 425 kts 232°
2026-05-04 15:14 27.73508 129.08044 40162 ft 426 kts 232°
2026-05-04 15:15 27.69565 129.03047 40165 ft 426 kts 232°
2026-05-04 15:15 27.65621 128.98053 40162 ft 426 kts 232°
2026-05-04 15:16 27.59705 128.90575 40163 ft 426 kts 232°
2026-05-04 15:17 27.53787 128.83108 40158 ft 425 kts 232°
2026-05-04 15:17 27.47875 128.75661 40157 ft 425 kts 232°
2026-05-04 15:18 27.43986 128.70649 40152 ft 424 kts 236°
2026-05-04 15:19 27.39248 128.62278 40166 ft 422 kts 242°
2026-05-04 15:19 27.34796 128.53769 40165 ft 415 kts 242°
2026-05-04 15:20 27.31887 128.48228 40138 ft 408 kts 242°
2026-05-04 15:20 27.28988 128.42726 40163 ft 410 kts 242°
2026-05-04 15:21 27.26077 128.37214 40164 ft 410 kts 242°
2026-05-04 15:21 27.23180 128.31744 39845 ft 396 kts 242°
2026-05-04 15:22 27.21780 128.29110 38890 ft 392 kts 242°
2026-05-04 15:22 27.20404 128.26514 37466 ft 396 kts 242°
2026-05-04 15:22 27.17571 128.21171 35437 ft 386 kts 242°
2026-05-04 15:23 27.16215 128.18620 34690 ft 388 kts 242°
2026-05-04 15:23 27.14826 128.15999 33853 ft 393 kts 242°
2026-05-04 15:23 27.13405 128.13317 32976 ft 396 kts 242°
2026-05-04 15:23 27.12010 128.10689 32138 ft 399 kts 241°
2026-05-04 15:24 27.09123 128.05268 30335 ft 409 kts 240°
2026-05-04 15:24 27.06179 127.99751 28615 ft 411 kts 240°
2026-05-04 15:25 27.04704 127.97005 27945 ft 408 kts 240°
2026-05-04 15:25 27.03027 127.94444 27269 ft 408 kts 231°
2026-05-04 15:25 27.00885 127.92333 26558 ft 413 kts 219°
2026-05-04 15:26 26.95454 127.90063 25148 ft 432 kts 193°
2026-05-04 15:26 26.92404 127.90109 24402 ft 445 kts 179°
2026-05-04 15:26 26.86256 127.90678 22757 ft 440 kts 185°
2026-05-04 15:27 26.83205 127.90789 21988 ft 437 kts 185°
2026-05-04 15:27 26.77170 127.90981 20439 ft 432 kts 185°
2026-05-04 15:28 26.71186 127.91161 18854 ft 429 kts 184°
2026-05-04 15:28 26.68210 127.91249 17999 ft 428 kts 184°
2026-05-04 15:28 26.62428 127.91428 16348 ft 410 kts 184°
2026-05-04 15:29 26.59575 127.91511 15545 ft 408 kts 184°
2026-05-04 15:30 26.48525 127.91836 12288 ft 391 kts 183°
2026-05-04 15:30 26.40660 127.92041 11021 ft 352 kts 187°
2026-05-04 15:31 26.36271 127.90642 10419 ft 322 kts 208°
2026-05-04 15:31 26.34241 127.89587 9894 ft 319 kts 209°
2026-05-04 15:32 26.28530 127.86629 9065 ft 284 kts 208°
2026-05-04 15:32 26.25057 127.84849 8406 ft 270 kts 208°
2026-05-04 15:33 26.21675 127.83118 7563 ft 265 kts 207°
2026-05-04 15:34 26.16741 127.80598 6019 ft 258 kts 206°
2026-05-04 15:34 26.15122 127.79772 5652 ft 254 kts 205°
2026-05-04 15:34 26.11928 127.78143 4943 ft 251 kts 202°
2026-05-04 15:35 26.08722 127.76503 4225 ft 255 kts 201°
2026-05-04 15:35 26.07126 127.75657 3856 ft 262 kts 203°
2026-05-04 15:35 26.05692 127.74347 3483 ft 277 kts 229°
2026-05-04 15:36 26.04883 127.70301 3078 ft 260 kts 270°
2026-05-04 15:36 26.04846 127.68329 2694 ft 249 kts 273°
2026-05-04 15:36 26.05297 127.66587 2483 ft 225 kts 313°
2026-05-04 15:37 26.06422 127.65602 2424 ft 197 kts 342°
2026-05-04 15:37 26.07676 127.65095 2171 ft 188 kts 352°
2026-05-04 15:37 26.08952 127.64985 1924 ft 179 kts
2026-05-04 15:37 26.10160 127.64947 1668 ft 168 kts
2026-05-04 15:38 26.11293 127.64889 1442 ft 159 kts
2026-05-04 15:38 26.12348 127.64844 1218 ft 142 kts
2026-05-04 15:38 26.13276 127.64806 1041 ft 127 kts
2026-05-04 15:38 26.14117 127.64769 879 ft 116 kts
2026-05-04 15:39 26.14914 127.64738 703 ft 115 kts
2026-05-04 15:39 26.15736 127.64708 571 ft 121 kts
2026-05-04 15:39 26.17420 127.64687 211 ft 121 kts
2026-05-04 15:40 26.18244 127.64649 44 ft 118 kts
2026-05-04 15:40 26.19006 127.64617 28 ft 95 kts 358°
2026-05-04 15:40 26.19416 127.64596 24 ft 34 kts 358°
2026-05-04 15:40 26.19642 127.64589 24 ft 31 kts
2026-05-04 15:41 26.19835 127.64651 25 ft 28 kts 25°
2026-05-04 15:41 26.19926 127.64704 26 ft 10 kts 28°
2026-05-04 15:41 26.19988 127.64740 27 ft 10 kts 27°
2026-05-04 15:41 26.20054 127.64771 26 ft 11 kts
2026-05-04 15:42 26.20133 127.64768 24 ft 12 kts 358°
2026-05-04 15:42 26.20223 127.64764 25 ft 14 kts 357°
2026-05-04 15:42 26.20323 127.64759 25 ft 15 kts 358°
2026-05-04 15:42 26.20427 127.64755 25 ft 15 kts 356°
2026-05-04 15:43 26.20526 127.64749 25 ft 12 kts 357°
2026-05-04 15:43 26.20570 127.64746 24 ft 2 kts 359°
2026-05-04 15:43 26.20596 127.64750 24 ft 6 kts 20°
2026-05-04 15:43 26.20607 127.64776 29 ft 3 kts 86°
2026-05-04 15:44 26.20591 127.64806 30 ft 8 kts 133°
2026-05-04 15:44 26.20562 127.64841 27 ft 2 kts 133°
2026-05-04 15:44 26.20558 127.64846 27 ft 2 kts 133°
2026-05-04 15:44 26.20551 127.64854 27 ft 1 kts 133°
2026-05-04 15:45 26.20551 127.64855 27 ft 0 kts 133°